This is the latest recevied weather packets stored in our database for station/object NK7E-1. If no packets are shown the sender has not sent any weather packets the latest 10 day(s).
| Time | Temp. | Humidity | Pressure | Rain* | Wind** | Luminosity | Snow |
|---|---|---|---|---|---|---|---|
| 1777495799 | 28.33° C | 8% | 1015.3 hPa | 0 mm | - | - | - |
| 1777495199 | 29.44° C | 7% | 1015.1 hPa | 0 mm | - | - | - |
| 1777494599 | 29.44° C | 7% | 1015.3 hPa | 0 mm | - | - | - |
| 1777493999 | 28.89° C | 8% | 1015.4 hPa | 0 mm | - | - | - |
| 1777493399 | 27.78° C | 9% | 1015.5 hPa | 0 mm | - | - | - |
| 1777492801 | 28.33° C | 8% | 1015.6 hPa | 0 mm | - | - | - |
| 1777492200 | 28.33° C | 10% | 1015.8 hPa | 0 mm | - | - | - |
| 1777491599 | 27.78° C | 12% | 1016 hPa | 0 mm | - | - | - |
| 1777490999 | 27.22° C | 13% | 1016 hPa | 0 mm | - | - | - |
| 1777490398 | 26.67° C | 13% | 1016.2 hPa | 0 mm | - | - | - |
| 1777489799 | 26.11° C | 14% | 1016.5 hPa | 0 mm | - | - | - |
| 1777489200 | 26.11° C | 14% | 1016.4 hPa | 0 mm | - | - | - |
| 1777488599 | 26.67° C | 14% | 1016.6 hPa | 0 mm | - | - | - |
| 1777488001 | 26.11° C | 14% | 1016.9 hPa | 0 mm | - | - | - |
| 1777487401 | 26.11° C | 14% | 1017 hPa | 0 mm | - | - | - |
| 1777486799 | 25° C | 15% | 1017.1 hPa | 0 mm | - | - | - |
| 1777486200 | 25° C | 16% | 1017.3 hPa | 0 mm | - | - | - |
| 1777485599 | 24.44° C | 17% | 1017.3 hPa | 0 mm | - | - | - |
| 1777484998 | 23.89° C | 18% | 1017.2 hPa | 0 mm | - | - | - |
| 1777484398 | 23.89° C | 18% | 1017.3 hPa | 0 mm | - | - | - |
| 1777483800 | 23.89° C | 18% | 1017.4 hPa | 0 mm | - | - | - |
| 1777483198 | 23.89° C | 19% | 1017.6 hPa | 0 mm | - | - | - |
| 1777482598 | 22.78° C | 20% | 1017.6 hPa | 0 mm | - | - | - |
| 1777482001 | 22.22° C | 20% | 1017.5 hPa | 0 mm | - | - | - |
| 1777481400 | 22.22° C | 21% | 1017.4 hPa | 0 mm | - | - | - |
* Rain latest hour (hover to see other rain measurements)
** Current wind speed in m/s (hover to see current wind gust speed)